Change the Weather History Date:

Saturday, September 14, 2013

  Actual Average Record
Temperature  
Mean Temperature 61 °F -  
Max Temperature 75 °F 82 °F 101 °F (1971)
Min Temperature 48 °F 58 °F 42 °F (1996)
Degree Days  
Heating Degree Days 4    
Growing Degree Days 11 (Base 50)    
Moisture  
Dew Point 46 °F    
Average Humidity 60    
Maximum Humidity 93    
Minimum Humidity 27    
Precipitation  
Precipitation 0.00 in - - ()
Sea Level Pressure  
Sea Level Pressure 30.12 in    
Wind  
Wind Speed 3 mph (NE)    
Max Wind Speed 8 mph    
Max Gust Speed -    
Visibility 10 miles    
Events Rain    
Averages and records for this station are not official NWS values.
T = Trace of Precipitation, MM = Missing Value Source: NWS Daily Summary

Daily Weather History Graph

Daily Weather History Graph

Search for Another Location

Airport or City:

Trip Planner

Search our weather history database for the weather conditions in past years. The results will help you decide how hot, cold, wet, or windy it might be!

Date:

Astronomy

Sep. 14, 2013 Rise Set
Actual Time 6:40 AM CDT 7:08 PM CDT
Civil Twilight 6:13 AM CDT 7:35 PM CDT
Nautical Twilight 5:42 AM CDT 8:06 PM CDT
Astronomical Twilight 5:10 AM CDT 8:38 PM CDT
Moon 3:47 PM CDT (9/14) 1:14 AM CDT (9/14)
Length of Visible Light 13h 21m
Length of Day
12h 28m
Waxing Gibbous, 72% of the Moon is Illuminated
Sep 14
Waxing Gibbous
Sep 19
Full
Sep 26
Last Quarter
Oct 4
New
Oct 11
First Quarter

Hourly Weather History & Observations

Time (CDT) Temp. Dew Point Humidity Pressure Visibility Wind Dir Wind Speed Gust Speed Precip Events Conditions
12:58 AM 55.0 °F 48.7 °F 79% 30.12 in 10.0 mi NNE 4.6 mph - N/A   Clear
1:58 AM 53.6 °F 48.6 °F 83% 30.13 in 10.0 mi NE 4.6 mph - N/A   Clear
2:58 AM 52.0 °F 48.2 °F 87% 30.13 in 10.0 mi NNE 4.6 mph - N/A   Clear
3:58 AM 51.1 °F 48.0 °F 89% 30.12 in 10.0 mi NNE 2.3 mph - N/A   Clear
4:58 AM 48.9 °F 46.9 °F 93% 30.12 in 10.0 mi NNW 2.3 mph - N/A   Clear
5:58 AM 49.1 °F 46.9 °F 92% 30.14 in 10.0 mi Calm Calm - N/A   Clear
6:58 AM 48.4 °F 46.6 °F 93% 30.14 in 10.0 mi North 1.2 mph - N/A   Clear
7:58 AM 52.9 °F 48.0 °F 84% 30.16 in 10.0 mi NNE 2.3 mph - N/A   Clear
8:58 AM 56.5 °F 50.0 °F 79% 30.17 in 10.0 mi Variable 2.3 mph - N/A   Clear
9:58 AM 61.0 °F 50.9 °F 69% 30.18 in 10.0 mi Calm Calm - N/A   Clear
10:58 AM 64.2 °F 48.9 °F 58% 30.18 in 10.0 mi Variable 2.3 mph - N/A   Clear
11:16 AM 66.2 °F 46.4 °F 49% 30.17 in 10.0 mi Calm Calm - N/A Rain Light Rain
11:24 AM 66.2 °F 44.6 °F 46% 30.16 in 10.0 mi Variable 1.2 mph - N/A   Clear
11:58 AM 68.2 °F 46.4 °F 46% 30.17 in 10.0 mi Calm Calm - 0.00 in   Clear
12:09 PM 69.8 °F 39.2 °F 33% 30.16 in 10.0 mi East 5.8 mph - N/A Rain Light Rain
12:18 PM 69.8 °F 39.2 °F 33% 30.16 in 10.0 mi ENE 5.8 mph - N/A   Clear
12:58 PM 71.4 °F 39.9 °F 32% 30.15 in 10.0 mi Variable 3.5 mph - 0.00 in   Clear
1:58 PM 73.4 °F 42.4 °F 33% 30.12 in 10.0 mi Variable 5.8 mph - N/A   Clear
2:26 PM 73.4 °F 39.2 °F 29% 30.09 in 10.0 mi SE 8.1 mph - N/A Rain Light Rain
2:36 PM 73.4 °F 37.4 °F 27% 30.09 in 10.0 mi SSE 5.8 mph - N/A   Clear
2:58 PM 73.8 °F 38.3 °F 28% 30.09 in 10.0 mi Variable 2.3 mph - 0.00 in   Clear
3:58 PM 74.3 °F 41.7 °F 31% 30.08 in 10.0 mi Variable 4.6 mph - N/A   Clear
4:58 PM 74.3 °F 38.1 °F 27% 30.07 in 10.0 mi Variable 2.3 mph - N/A   Clear
5:58 PM 73.6 °F 45.3 °F 36% 30.05 in 10.0 mi East 3.5 mph - N/A   Clear
6:58 PM 68.4 °F 51.1 °F 54% 30.06 in 10.0 mi Calm Calm - N/A   Clear
7:58 PM 60.4 °F 51.8 °F 73% 30.07 in 10.0 mi NW 1.2 mph - N/A   Clear
8:58 PM 58.5 °F 51.4 °F 77% 30.07 in 10.0 mi Calm Calm - N/A   Clear
9:58 PM 55.9 °F 50.9 °F 83% 30.08 in 10.0 mi NE 1.2 mph - N/A   Clear
10:58 PM 55.0 °F 48.4 °F 78% 30.07 in 10.0 mi Calm Calm - N/A   Clear
11:58 PM 54.5 °F 48.7 °F 81% 30.07 in 10.0 mi Calm Calm - N/A   Clear